| time (UTC) | temp F | wind direction | speed MPH | gust MPH | rain 1hr in | rain 24hr in | rain mn in | humidity % | barometer mb |
| 20260509222517 | 52 | 113 | 1.0 | 6.0 | 0.00 | 0.00 | 0.00 | 54 | 1019.5 |
| 20260509222017 | 53 | 135 | 2.0 | 7.0 | 0.00 | 0.00 | 0.00 | 53 | 1019.5 |
| 20260509221517 | 53 | 158 | 3.0 | 7.0 | 0.00 | 0.00 | 0.00 | 53 | 1019.4 |
| 20260509221017 | 54 | 225 | 2.0 | 13.0 | 0.00 | 0.00 | 0.00 | 53 | 1019.4 |
| 20260509220517 | 54 | 113 | 1.0 | 5.0 | 0.00 | 0.00 | 0.00 | 53 | 1019.3 |
| 20260509220018 | 54 | 135 | 2.0 | 8.0 | 0.00 | 0.00 | 0.00 | 53 | 1019.2 |
| 20260509215517 | 55 | 180 | 2.0 | 9.0 | 0.00 | 0.00 | 0.00 | 53 | 1019.1 |
| 20260509215017 | 55 | 135 | 2.0 | 7.0 | 0.00 | 0.00 | 0.00 | 52 | 1019.1 |
| 20260509214517 | 55 | 113 | 2.0 | 5.0 | 0.00 | 0.00 | 0.00 | 52 | 1019.1 |
| 20260509214017 | 55 | 135 | 3.0 | 7.0 | 0.00 | 0.00 | 0.00 | 52 | 1019.1 |
| 20260509213519 | 55 | 135 | 3.0 | 7.0 | 0.00 | 0.00 | 0.00 | 52 | 1019.1 |
| 20260509213017 | 56 | 135 | 3.0 | 8.0 | 0.00 | 0.00 | 0.00 | 51 | 1018.9 |
| 20260509212517 | 56 | 158 | 3.0 | 7.0 | 0.00 | 0.00 | 0.00 | 50 | 1018.9 |
| 20260509212017 | 56 | 158 | 2.0 | 8.0 | 0.00 | 0.00 | 0.00 | 50 | 1018.9 |
| 20260509211517 | 57 | 135 | 3.0 | 6.0 | 0.00 | 0.00 | 0.00 | 49 | 1018.7 |
| 20260509211017 | 57 | 113 | 2.0 | 8.0 | 0.00 | 0.00 | 0.00 | 48 | 1018.7 |
| 20260509210518 | 57 | 135 | 2.0 | 7.0 | 0.00 | 0.00 | 0.00 | 46 | 1018.6 |
| 20260509210017 | 57 | 135 | 3.0 | 7.0 | 0.00 | 0.00 | 0.00 | 46 | 1018.6 |
| 20260509205517 | 58 | 113 | 3.0 | 6.0 | 0.00 | 0.00 | 0.00 | 44 | 1018.6 |
| 20260509205018 | 59 | 158 | 2.0 | 7.0 | 0.00 | 0.00 | 0.00 | 44 | 1018.5 |
| 20260509204517 | 59 | 158 | 2.0 | 6.0 | 0.00 | 0.00 | 0.00 | 43 | 1018.4 |
| 20260509204019 | 59 | 113 | 2.0 | 10.0 | 0.00 | 0.00 | 0.00 | 43 | 1018.4 |
| 20260509203518 | 59 | 225 | 4.0 | 10.0 | 0.00 | 0.00 | 0.00 | 41 | 1018.4 |
| 20260509203017 | 59 | 225 | 3.0 | 12.0 | 0.00 | 0.00 | 0.00 | 42 | 1018.3 |
| 20260509202517 | 59 | 158 | 4.0 | 9.0 | 0.00 | 0.00 | 0.00 | 41 | 1018.3 |
| 20260509202017 | 59 | 135 | 4.0 | 11.0 | 0.00 | 0.00 | 0.00 | 40 | 1018.2 |
| 20260509201517 | 59 | 158 | 4.0 | 10.0 | 0.00 | 0.00 | 0.00 | 40 | 1018.2 |
| 20260509201017 | 59 | 135 | 5.0 | 14.0 | 0.00 | 0.00 | 0.00 | 41 | 1018.1 |
| 20260509200517 | 59 | 158 | 3.0 | 11.0 | 0.00 | 0.00 | 0.00 | 41 | 1018.0 |
| 20260509200018 | 59 | 113 | 4.0 | 16.0 | 0.00 | 0.00 | 0.00 | 41 | 1018.0 |
| 20260509195515 | 59 | 225 | 5.0 | 16.0 | 0.00 | 0.00 | 0.00 | 39 | 1017.8 |
| 20260509195017 | 60 | 158 | 4.0 | 9.0 | 0.00 | 0.00 | 0.00 | 41 | 1017.7 |
| 20260509194519 | 60 | 135 | 4.0 | 11.0 | 0.00 | 0.00 | 0.00 | 41 | 1017.6 |
| 20260509194019 | 60 | 225 | 4.0 | 13.0 | 0.00 | 0.00 | 0.00 | 41 | 1017.5 |
| 20260509193517 | 60 | 158 | 3.0 | 10.0 | 0.00 | 0.00 | 0.00 | 41 | 1017.5 |
| 20260509193017 | 60 | 135 | 3.0 | 8.0 | 0.00 | 0.00 | 0.00 | 42 | 1017.4 |
| 20260509192517 | 60 | 158 | 3.0 | 14.0 | 0.00 | 0.00 | 0.00 | 44 | 1017.5 |
| 20260509192015 | 59 | 225 | 4.0 | 11.0 | 0.00 | 0.00 | 0.00 | 46 | 1017.5 |
| 20260509191517 | 59 | 158 | 4.0 | 8.0 | 0.00 | 0.00 | 0.00 | 44 | 1017.5 |
| 20260509191017 | 59 | 158 | 3.0 | 10.0 | 0.00 | 0.00 | 0.00 | 45 | 1017.5 |
| 20260509190517 | 59 | 158 | 3.0 | 10.0 | 0.00 | 0.00 | 0.00 | 48 | 1017.6 |
| 20260509190017 | 59 | 158 | 4.0 | 10.0 | 0.00 | 0.00 | 0.00 | 50 | 1017.5 |
| 20260509185517 | 59 | 135 | 3.0 | 8.0 | 0.00 | 0.00 | 0.00 | 51 | 1017.5 |
| 20260509185017 | 60 | 158 | 3.0 | 10.0 | 0.00 | 0.00 | 0.00 | 48 | 1017.4 |
| 20260509184515 | 60 | 158 | 3.0 | 10.0 | 0.00 | 0.00 | 0.00 | 49 | 1017.5 |
| 20260509184017 | 60 | 158 | 3.0 | 13.0 | 0.00 | 0.00 | 0.00 | 45 | 1017.4 |
| 20260509183517 | 60 | 180 | 3.0 | 9.0 | 0.00 | 0.00 | 0.00 | 46 | 1017.3 |
| 20260509183017 | 60 | 225 | 3.0 | 10.0 | 0.00 | 0.00 | 0.00 | 48 | 1017.3 |
| 20260509182518 | 59 | 158 | 2.0 | 7.0 | 0.00 | 0.00 | 0.00 | 56 | 1017.2 |
| 20260509182017 | 58 | 135 | 4.0 | 8.0 | 0.00 | 0.00 | 0.00 | 56 | 1017.2 |
| 20260509181517 | 59 | 135 | 5.0 | 11.0 | 0.00 | 0.00 | 0.00 | 53 | 1017.2 |
| 20260509181015 | 59 | 158 | 4.0 | 9.0 | 0.00 | 0.00 | 0.00 | 52 | 1017.1 |
| 20260509180517 | 60 | 135 | 3.0 | 10.0 | 0.00 | 0.00 | 0.00 | 51 | 1017.1 |
| 20260509180017 | 60 | 135 | 5.0 | 15.0 | 0.00 | 0.00 | 0.00 | 50 | 1017.2 |
| 20260509175517 | 60 | 158 | 3.0 | 11.0 | 0.00 | 0.00 | 0.00 | 50 | 1017.1 |
| 20260509175017 | 60 | 225 | 4.0 | 14.0 | 0.00 | 0.00 | 0.00 | 49 | 1017.0 |
| 20260509174517 | 60 | 158 | 4.0 | 9.0 | 0.00 | 0.00 | 0.00 | 48 | 1016.9 |
| 20260509174017 | 61 | 135 | 3.0 | 8.0 | 0.00 | 0.00 | 0.00 | 47 | 1016.8 |
| 20260509173515 | 61 | 225 | 4.0 | 9.0 | 0.00 | 0.00 | 0.00 | 49 | 1016.8 |
| 20260509173018 | 60 | 135 | 3.0 | 9.0 | 0.00 | 0.00 | 0.00 | 47 | 1016.7 |
| 20260509172517 | 60 | 135 | 4.0 | 14.0 | 0.00 | 0.00 | 0.00 | 49 | 1016.7 |
| 20260509172017 | 60 | 180 | 4.0 | 12.0 | 0.00 | 0.00 | 0.00 | 47 | 1016.8 |
| 20260509171517 | 60 | 158 | 4.0 | 8.0 | 0.00 | 0.00 | 0.00 | 47 | 1016.8 |
| 20260509171017 | 60 | 135 | 3.0 | 11.0 | 0.00 | 0.00 | 0.00 | 46 | 1016.8 |
| 20260509170517 | 59 | 135 | 4.0 | 8.0 | 0.00 | 0.00 | 0.00 | 47 | 1016.8 |
| 20260509170015 | 60 | 135 | 4.0 | 13.0 | 0.00 | 0.00 | 0.00 | 46 | 1016.7 |
| 20260509165517 | 60 | 158 | 4.0 | 9.0 | 0.00 | 0.00 | 0.00 | 48 | 1016.7 |
| 20260509165017 | 60 | 158 | 4.0 | 10.0 | 0.00 | 0.00 | 0.00 | 45 | 1016.7 |
| 20260509164517 | 61 | 158 | 4.0 | 10.0 | 0.00 | 0.00 | 0.00 | 45 | 1016.7 |
| 20260509164017 | 61 | 135 | 3.0 | 9.0 | 0.00 | 0.00 | 0.00 | 45 | 1016.6 |
| 20260509163517 | 61 | 158 | 3.0 | 12.0 | 0.00 | 0.00 | 0.00 | 46 | 1016.5 |
| 20260509162516 | 60 | 225 | 3.0 | 8.0 | 0.00 | 0.00 | 0.00 | 46 | 1016.5 |
| 20260509162017 | 61 | 225 | 4.0 | 14.0 | 0.00 | 0.00 | 0.00 | 45 | 1016.6 |
| 20260509161517 | 61 | 135 | 4.0 | 8.0 | 0.00 | 0.00 | 0.00 | 42 | 1016.5 |
| 20260509161017 | 61 | 135 | 3.0 | 10.0 | 0.00 | 0.00 | 0.00 | 45 | 1016.4 |
| 20260509160517 | 61 | 203 | 3.0 | 9.0 | 0.00 | 0.00 | 0.00 | 44 | 1016.5 |
| 20260509160017 | 60 | 158 | 4.0 | 13.0 | 0.00 | 0.00 | 0.00 | 46 | 1016.4 |
| 20260509155517 | 59 | 293 | 4.0 | 13.0 | 0.00 | 0.00 | 0.00 | 43 | 1016.6 |
| 20260509155016 | 60 | 135 | 3.0 | 11.0 | 0.00 | 0.00 | 0.00 | 42 | 1016.6 |
| 20260509154519 | 60 | 113 | 3.0 | 8.0 | 0.00 | 0.00 | 0.00 | 42 | 1016.5 |
| 20260509154017 | 59 | 203 | 2.0 | 7.0 | 0.00 | 0.00 | 0.00 | 44 | 1016.5 |
| 20260509153517 | 60 | 158 | 4.0 | 10.0 | 0.00 | 0.00 | 0.00 | 41 | 1016.6 |
| 20260509153017 | 59 | 113 | 2.0 | 6.0 | 0.00 | 0.00 | 0.00 | 46 | 1016.5 |
| 20260509152517 | 57 | 158 | 3.0 | 10.0 | 0.00 | 0.00 | 0.00 | 45 | 1016.4 |
| 20260509152017 | 56 | 158 | 3.0 | 10.0 | 0.00 | 0.00 | 0.00 | 47 | 1016.5 |
| 20260509151517 | 56 | 225 | 1.0 | 6.0 | 0.00 | 0.00 | 0.00 | 48 | 1016.4 |
| 20260509151017 | 56 | 270 | 2.0 | 7.0 | 0.00 | 0.00 | 0.00 | 47 | 1016.4 |
| 20260509150518 | 56 | 315 | 2.0 | 7.0 | 0.00 | 0.00 | 0.00 | 47 | 1016.4 |
| 20260509150017 | 56 | 135 | 2.0 | 5.0 | 0.00 | 0.00 | 0.00 | 54 | 1016.4 |
| 20260509145517 | 56 | 225 | 2.0 | 6.0 | 0.00 | 0.00 | 0.00 | 54 | 1016.3 |
| 20260509145018 | 56 | 225 | 1.0 | 5.0 | 0.00 | 0.00 | 0.00 | 49 | 1016.3 |
| 20260509144519 | 56 | 0.0 | 3.0 | 0.00 | 0.00 | 0.00 | 49 | 1016.3 | |
| 20260509144017 | 56 | 113 | 1.0 | 4.0 | 0.00 | 0.00 | 0.00 | 52 | 1016.3 |
| 20260509143517 | 56 | 135 | 2.0 | 6.0 | 0.00 | 0.00 | 0.00 | 53 | 1016.4 |
| 20260509143017 | 57 | 135 | 1.0 | 3.0 | 0.00 | 0.00 | 0.00 | 49 | 1016.4 |
| 20260509142517 | 57 | 135 | 2.0 | 5.0 | 0.00 | 0.00 | 0.00 | 48 | 1016.3 |
| 20260509142017 | 58 | 225 | 4.0 | 9.0 | 0.00 | 0.00 | 0.00 | 43 | 1016.3 |
| 20260509141517 | 58 | 248 | 4.0 | 11.0 | 0.00 | 0.00 | 0.00 | 41 | 1016.2 |
| 20260509141017 | 58 | 315 | 2.0 | 5.0 | 0.00 | 0.00 | 0.00 | 44 | 1016.1 |
| 20260509140518 | 59 | 248 | 3.0 | 11.0 | 0.00 | 0.00 | 0.00 | 49 | 1015.9 |
| 20260509140019 | 59 | 225 | 3.0 | 8.0 | 0.00 | 0.00 | 0.00 | 44 | 1015.9 |
| 20260509135518 | 58 | 225 | 1.0 | 4.0 | 0.00 | 0.00 | 0.00 | 48 | 1016.0 |
| 20260509135017 | 57 | 315 | 3.0 | 9.0 | 0.00 | 0.00 | 0.00 | 45 | 1016.0 |
| 20260509134517 | 57 | 293 | 3.0 | 9.0 | 0.00 | 0.00 | 0.00 | 45 | 1016.0 |
| 20260509134017 | 57 | 315 | 3.0 | 11.0 | 0.00 | 0.00 | 0.00 | 44 | 1015.9 |
| 20260509133517 | 57 | 225 | 4.0 | 11.0 | 0.00 | 0.00 | 0.00 | 46 | 1015.8 |
| 20260509133017 | 57 | 225 | 2.0 | 7.0 | 0.00 | 0.00 | 0.00 | 46 | 1015.8 |
| 20260509132517 | 56 | 225 | 3.0 | 8.0 | 0.00 | 0.00 | 0.00 | 49 | 1015.8 |
| 20260509132017 | 56 | 225 | 3.0 | 8.0 | 0.00 | 0.00 | 0.00 | 48 | 1015.7 |
| 20260509131517 | 56 | 225 | 3.0 | 9.0 | 0.00 | 0.00 | 0.00 | 49 | 1015.8 |
| 20260509131017 | 56 | 248 | 3.0 | 9.0 | 0.00 | 0.00 | 0.00 | 51 | 1015.7 |
| 20260509130517 | 56 | 293 | 2.0 | 4.0 | 0.00 | 0.00 | 0.00 | 52 | 1015.6 |
| 20260509130017 | 55 | 293 | 2.0 | 4.0 | 0.00 | 0.00 | 0.00 | 52 | 1015.6 |
| 20260509125517 | 55 | 270 | 2.0 | 7.0 | 0.00 | 0.00 | 0.00 | 53 | 1015.5 |
| 20260509125017 | 54 | 293 | 2.0 | 5.0 | 0.00 | 0.00 | 0.00 | 55 | 1015.6 |
| 20260509124517 | 54 | 315 | 3.0 | 5.0 | 0.00 | 0.00 | 0.00 | 56 | 1015.6 |
| 20260509124017 | 54 | 315 | 1.0 | 5.0 | 0.00 | 0.00 | 0.00 | 55 | 1015.6 |
| 20260509123517 | 54 | 293 | 2.0 | 6.0 | 0.00 | 0.00 | 0.00 | 57 | 1015.6 |
| 20260509123017 | 54 | 225 | 1.0 | 4.0 | 0.00 | 0.00 | 0.00 | 61 | 1015.5 |
| 20260509122517 | 53 | 158 | 1.0 | 6.0 | 0.00 | 0.00 | 0.00 | 62 | 1015.5 |
| 20260509122017 | 52 | 315 | 1.0 | 5.0 | 0.00 | 0.00 | 0.00 | 64 | 1015.5 |
| 20260509121518 | 52 | 225 | 1.0 | 6.0 | 0.00 | 0.00 | 0.00 | 65 | 1015.5 |
| 20260509121017 | 52 | 225 | 1.0 | 5.0 | 0.00 | 0.00 | 0.00 | 66 | 1015.5 |
| 20260509120517 | 51 | 0.0 | 2.0 | 0.00 | 0.00 | 0.00 | 69 | 1015.4 | |
| 20260509120017 | 50 | 0.0 | 2.0 | 0.00 | 0.00 | 0.00 | 71 | 1015.4 | |
| 20260509115517 | 50 | 293 | 1.0 | 4.0 | 0.00 | 0.00 | 0.00 | 72 | 1015.4 |
| 20260509115017 | 49 | 0.0 | 2.0 | 0.00 | 0.00 | 0.00 | 74 | 1015.4 | |
| 20260509114517 | 49 | 0.0 | 1.0 | 0.00 | 0.00 | 0.00 | 79 | 1015.3 | |
| 20260509114018 | 47 | 0.0 | 2.0 | 0.00 | 0.00 | 0.00 | 82 | 1015.3 | |
| 20260509113517 | 46 | 0.0 | 0.0 | 0.00 | 0.00 | 0.00 | 88 | 1015.2 | |
| 20260509113017 | 45 | 0.0 | 0.0 | 0.00 | 0.00 | 0.00 | 90 | 1015.1 | |
| 20260509112517 | 44 | 0.0 | 1.0 | 0.00 | 0.00 | 0.00 | 93 | 1015.0 | |
| 20260509112017 | 44 | 0.0 | 0.0 | 0.00 | 0.00 | 0.00 | 94 | 1015.0 | |
| 20260509111517 | 43 | 0.0 | 1.0 | 0.00 | 0.00 | 0.00 | 94 | 1015.0 | |
| 20260509111017 | 42 | 0.0 | 1.0 | 0.00 | 0.00 | 0.00 | 94 | 1014.9 | |
| 20260509110517 | 42 | 0.0 | 1.0 | 0.00 | 0.00 | 0.00 | 94 | 1014.9 | |
| 20260509110017 | 41 | 0.0 | 1.0 | 0.00 | 0.00 | 0.00 | 94 | 1014.8 | |
| 20260509105518 | 40 | 0.0 | 1.0 | 0.00 | 0.00 | 0.00 | 94 | 1014.7 | |
| 20260509105017 | 39 | 0.0 | 0.0 | 0.00 | 0.00 | 0.00 | 94 | 1014.7 | |
| 20260509104517 | 39 | 0.0 | 0.0 | 0.00 | 0.00 | 0.00 | 94 | 1014.6 | |
| 20260509104017 | 38 | 0.0 | 0.0 | 0.00 | 0.00 | 0.00 | 94 | 1014.5 | |
| 20260509103517 | 38 | 0.0 | 0.0 | 0.00 | 0.00 | 0.00 | 94 | 1014.4 | |
| 20260509103017 | 37 | 0.0 | 0.0 | 0.00 | 0.00 | 0.00 | 94 | 1014.3 | |
| 20260509102517 | 36 | 0.0 | 0.0 | 0.00 | 0.00 | 0.00 | 94 | 1014.3 | |
| 20260509102017 | 36 | 0.0 | 0.0 | 0.00 | 0.00 | 0.00 | 94 | 1014.2 | |
| 20260509101517 | 35 | 0.0 | 0.0 | 0.00 | 0.00 | 0.00 | 94 | 1014.0 | |
| 20260509101018 | 35 | 0.0 | 0.0 | 0.00 | 0.00 | 0.00 | 94 | 1013.9 | |
| 20260509100517 | 34 | 0.0 | 0.0 | 0.00 | 0.00 | 0.00 | 93 | 1013.8 | |
| 20260509100017 | 34 | 0.0 | 0.0 | 0.00 | 0.00 | 0.00 | 93 | 1013.7 | |
| 20260509095518 | 34 | 0.0 | 0.0 | 0.00 | 0.00 | 0.00 | 93 | 1013.6 | |
| 20260509095018 | 33 | 0.0 | 0.0 | 0.00 | 0.00 | 0.00 | 93 | 1013.5 | |
| 20260509094517 | 33 | 0.0 | 0.0 | 0.00 | 0.00 | 0.00 | 93 | 1013.3 | |
| 20260509094017 | 33 | 0.0 | 0.0 | 0.00 | 0.00 | 0.00 | 93 | 1013.2 | |
| 20260509093517 | 33 | 0.0 | 0.0 | 0.00 | 0.00 | 0.00 | 93 | 1013.1 | |
| 20260509093017 | 33 | 0.0 | 0.0 | 0.00 | 0.00 | 0.00 | 93 | 1013.1 | |
| 20260509092517 | 33 | 0.0 | 0.0 | 0.00 | 0.00 | 0.00 | 93 | 1013.0 | |
| 20260509092017 | 34 | 0.0 | 0.0 | 0.00 | 0.00 | 0.00 | 93 | 1013.0 | |
| 20260509091517 | 33 | 0.0 | 0.0 | 0.00 | 0.00 | 0.00 | 93 | 1012.9 | |
| 20260509091017 | 33 | 0.0 | 0.0 | 0.00 | 0.00 | 0.00 | 93 | 1012.9 | |
| 20260509090517 | 34 | 0.0 | 0.0 | 0.00 | 0.00 | 0.00 | 93 | 1012.8 | |
| 20260509090017 | 34 | 0.0 | 0.0 | 0.00 | 0.00 | 0.00 | 93 | 1012.7 | |
| 20260509085517 | 34 | 0.0 | 0.0 | 0.00 | 0.00 | 0.00 | 93 | 1012.6 | |
| 20260509085015 | 34 | 0.0 | 1.0 | 0.00 | 0.00 | 0.00 | 93 | 1012.6 | |
| 20260509084517 | 34 | 0.0 | 1.0 | 0.00 | 0.00 | 0.00 | 93 | 1012.5 | |
| 20260509084017 | 34 | 0.0 | 2.0 | 0.00 | 0.00 | 0.00 | 93 | 1012.4 | |
| 20260509083517 | 34 | 0.0 | 0.0 | 0.00 | 0.00 | 0.00 | 93 | 1012.3 | |
| 20260509083017 | 34 | 0.0 | 0.0 | 0.00 | 0.00 | 0.00 | 92 | 1012.2 | |
| 20260509082519 | 34 | 0.0 | 0.0 | 0.00 | 0.00 | 0.00 | 92 | 1012.2 | |
| 20260509082017 | 34 | 0.0 | 0.0 | 0.00 | 0.00 | 0.00 | 92 | 1012.3 | |
| 20260509081517 | 34 | 0.0 | 0.0 | 0.00 | 0.00 | 0.00 | 92 | 1012.3 | |
| 20260509081017 | 35 | 0.0 | 0.0 | 0.00 | 0.00 | 0.00 | 92 | 1012.2 | |
| 20260509080517 | 35 | 0.0 | 0.0 | 0.00 | 0.00 | 0.00 | 93 | 1012.2 | |
| 20260509080019 | 35 | 0.0 | 0.0 | 0.00 | 0.00 | 0.00 | 93 | 1012.1 | |
| 20260509075517 | 35 | 0.0 | 0.0 | 0.00 | 0.00 | 0.00 | 93 | 1012.1 | |
| 20260509075017 | 35 | 0.0 | 0.0 | 0.00 | 0.00 | 0.00 | 93 | 1012.0 | |
| 20260509074517 | 35 | 0.0 | 0.0 | 0.00 | 0.00 | 0.00 | 92 | 1012.0 | |
| 20260509074017 | 35 | 0.0 | 0.0 | 0.00 | 0.00 | 0.00 | 92 | 1012.0 | |
| 20260509073517 | 35 | 0.0 | 0.0 | 0.00 | 0.00 | 0.00 | 92 | 1012.1 | |
| 20260509073017 | 35 | 0.0 | 0.0 | 0.00 | 0.00 | 0.00 | 92 | 1012.0 | |
| 20260509072517 | 35 | 0.0 | 0.0 | 0.00 | 0.00 | 0.00 | 92 | 1012.1 | |
| 20260509072017 | 35 | 0.0 | 0.0 | 0.00 | 0.00 | 0.00 | 92 | 1011.9 | |
| 20260509071517 | 35 | 0.0 | 0.0 | 0.00 | 0.00 | 0.00 | 92 | 1011.9 | |
| 20260509071017 | 36 | 0.0 | 0.0 | 0.00 | 0.00 | 0.00 | 92 | 1011.9 | |
| 20260509070517 | 36 | 0.0 | 0.0 | 0.00 | 0.00 | 0.00 | 92 | 1011.7 | |
| 20260509070017 | 36 | 0.0 | 0.0 | 0.00 | 0.00 | 0.00 | 92 | 1011.6 | |
| 20260509065517 | 36 | 0.0 | 0.0 | 0.00 | 0.00 | 0.00 | 92 | 1011.6 | |
| 20260509065017 | 36 | 0.0 | 0.0 | 0.00 | 0.00 | 0.00 | 92 | 1011.5 | |
| 20260509064517 | 36 | 0.0 | 0.0 | 0.00 | 0.00 | 0.00 | 92 | 1011.4 | |
| 20260509064017 | 37 | 0.0 | 0.0 | 0.00 | 0.00 | 0.00 | 92 | 1011.3 | |
| 20260509063517 | 37 | 0.0 | 0.0 | 0.00 | 0.00 | 0.00 | 92 | 1011.2 | |
| 20260509063017 | 37 | 0.0 | 0.0 | 0.00 | 0.00 | 0.00 | 92 | 1011.2 | |
| 20260509062517 | 37 | 0.0 | 0.0 | 0.00 | 0.00 | 0.00 | 91 | 1011.0 | |
| 20260509062017 | 37 | 0.0 | 0.0 | 0.00 | 0.00 | 0.00 | 91 | 1011.0 | |
| 20260509061517 | 37 | 0.0 | 0.0 | 0.00 | 0.00 | 0.00 | 92 | 1010.9 | |
| 20260509061017 | 37 | 0.0 | 0.0 | 0.00 | 0.00 | 0.00 | 91 | 1010.8 | |
| 20260509060517 | 37 | 0.0 | 0.0 | 0.00 | 0.00 | 0.00 | 91 | 1010.8 | |
| 20260509060017 | 37 | 0.0 | 0.0 | 0.00 | 0.00 | 0.00 | 91 | 1010.6 | |
| 20260509055517 | 38 | 0.0 | 0.0 | 0.00 | 0.00 | 0.00 | 91 | 1010.5 | |
| 20260509055017 | 38 | 0.0 | 0.0 | 0.00 | 0.00 | 0.00 | 91 | 1010.5 | |
| 20260509054517 | 38 | 0.0 | 0.0 | 0.00 | 0.00 | 0.00 | 90 | 1010.4 | |
| 20260509054017 | 38 | 0.0 | 0.0 | 0.00 | 0.00 | 0.00 | 90 | 1010.3 | |
| 20260509053517 | 38 | 0.0 | 0.0 | 0.00 | 0.00 | 0.00 | 90 | 1010.3 | |
| 20260509053017 | 39 | 0.0 | 0.0 | 0.00 | 0.00 | 0.00 | 90 | 1010.2 | |
| 20260509052517 | 39 | 0.0 | 0.0 | 0.00 | 0.00 | 0.00 | 90 | 1010.1 | |
| 20260509052017 | 39 | 0.0 | 1.0 | 0.00 | 0.00 | 0.00 | 90 | 1010.0 | |
| 20260509051518 | 40 | 0.0 | 0.0 | 0.00 | 0.00 | 0.00 | 90 | 1010.0 | |
| 20260509051017 | 40 | 0.0 | 2.0 | 0.00 | 0.00 | 0.00 | 90 | 1009.9 | |
| 20260509050517 | 39 | 0.0 | 1.0 | 0.00 | 0.00 | 0.00 | 89 | 1009.9 | |
| 20260509050017 | 39 | 0.0 | 0.0 | 0.00 | 0.00 | 0.00 | 89 | 1009.8 | |
| 20260509045517 | 39 | 0.0 | 0.0 | 0.00 | 0.00 | 0.00 | 88 | 1009.6 | |
| 20260509045017 | 40 | 0.0 | 1.0 | 0.00 | 0.00 | 0.00 | 88 | 1009.6 | |
| 20260509044517 | 40 | 0.0 | 1.0 | 0.00 | 0.00 | 0.00 | 89 | 1009.6 | |
| 20260509044017 | 40 | 0.0 | 2.0 | 0.00 | 0.00 | 0.00 | 89 | 1009.5 | |
| 20260509043517 | 40 | 0.0 | 1.0 | 0.00 | 0.00 | 0.00 | 88 | 1009.5 | |
| 20260509043017 | 40 | 0.0 | 1.0 | 0.00 | 0.00 | 0.00 | 88 | 1009.4 | |
| 20260509042517 | 40 | 0.0 | 0.0 | 0.00 | 0.00 | 0.00 | 88 | 1009.4 | |
| 20260509042017 | 40 | 0.0 | 1.0 | 0.00 | 0.00 | 0.00 | 88 | 1009.3 | |
| 20260509041517 | 40 | 0.0 | 0.0 | 0.00 | 0.00 | 0.00 | 88 | 1009.3 | |
| 20260509041018 | 40 | 0.0 | 0.0 | 0.00 | 0.00 | 0.00 | 88 | 1009.2 | |
| 20260509040517 | 40 | 0.0 | 0.0 | 0.00 | 0.00 | 0.00 | 87 | 1009.1 | |
| 20260509040017 | 40 | 0.0 | 0.0 | 0.00 | 0.00 | 0.00 | 87 | 1009.1 | |
| 20260509035517 | 41 | 0.0 | 0.0 | 0.00 | 0.00 | 0.00 | 87 | 1009.1 | |
| 20260509035017 | 41 | 0.0 | 0.0 | 0.00 | 0.00 | 0.00 | 86 | 1009.0 | |
| 20260509034518 | 41 | 0.0 | 0.0 | 0.00 | 0.00 | 0.00 | 86 | 1008.9 | |
| 20260509034017 | 41 | 0.0 | 1.0 | 0.00 | 0.00 | 0.00 | 86 | 1008.9 | |
| 20260509033517 | 42 | 0.0 | 0.0 | 0.00 | 0.00 | 0.00 | 86 | 1008.8 | |
| 20260509033018 | 42 | 0.0 | 0.0 | 0.00 | 0.00 | 0.00 | 86 | 1008.9 | |
| 20260509032517 | 42 | 0.0 | 0.0 | 0.00 | 0.00 | 0.00 | 85 | 1008.8 | |
| 20260509032017 | 42 | 0.0 | 0.0 | 0.00 | 0.00 | 0.00 | 85 | 1008.7 | |
| 20260509031517 | 42 | 0.0 | 1.0 | 0.00 | 0.00 | 0.00 | 86 | 1008.6 | |
| 20260509031017 | 42 | 0.0 | 0.0 | 0.00 | 0.00 | 0.00 | 86 | 1008.6 | |
| 20260509030517 | 42 | 0.0 | 0.0 | 0.00 | 0.00 | 0.00 | 86 | 1008.6 | |
| 20260509030017 | 42 | 0.0 | 0.0 | 0.00 | 0.00 | 0.00 | 86 | 1008.5 | |
| 20260509025516 | 42 | 0.0 | 0.0 | 0.00 | 0.00 | 0.00 | 85 | 1008.5 | |
| 20260509025015 | 43 | 0.0 | 0.0 | 0.00 | 0.00 | 0.00 | 85 | 1008.5 | |
| 20260509024516 | 43 | 0.0 | 0.0 | 0.00 | 0.00 | 0.00 | 85 | 1008.6 | |
| 20260509024016 | 43 | 0.0 | 0.0 | 0.00 | 0.00 | 0.00 | 83 | 1008.5 | |
| 20260509023515 | 43 | 0.0 | 0.0 | 0.00 | 0.00 | 0.00 | 82 | 1008.5 | |
| 20260509023015 | 44 | 0.0 | 0.0 | 0.00 | 0.00 | 0.00 | 82 | 1008.5 | |
| 20260509022516 | 44 | 0 | 1.0 | 1.0 | 0.00 | 0.00 | 0.00 | 83 | 1008.5 |
| 20260509022017 | 43 | 0 | 1.0 | 2.0 | 0.00 | 0.00 | 0.00 | 84 | 1008.5 |
| 20260509021516 | 43 | 0.0 | 2.0 | 0.00 | 0.00 | 0.00 | 86 | 1008.5 | |
| 20260509021016 | 43 | 0.0 | 0.0 | 0.00 | 0.00 | 0.00 | 86 | 1008.3 | |
| 20260509020517 | 43 | 0.0 | 0.0 | 0.00 | 0.00 | 0.00 | 86 | 1008.2 | |
| 20260509020015 | 43 | 0.0 | 0.0 | 0.00 | 0.00 | 0.00 | 86 | 1008.3 | |
| 20260509015516 | 43 | 0.0 | 0.0 | 0.00 | 0.00 | 0.00 | 86 | 1008.2 | |
| 20260509015016 | 43 | 0.0 | 0.0 | 0.00 | 0.00 | 0.00 | 86 | 1008.1 | |
| 20260509014515 | 43 | 0.0 | 0.0 | 0.00 | 0.00 | 0.00 | 86 | 1008.0 | |
| 20260509014016 | 43 | 0.0 | 0.0 | 0.00 | 0.00 | 0.00 | 85 | 1007.9 | |
| 20260509013516 | 43 | 0.0 | 0.0 | 0.00 | 0.00 | 0.00 | 84 | 1007.8 | |
| 20260509013016 | 44 | 0.0 | 0.0 | 0.00 | 0.00 | 0.00 | 83 | 1007.7 | |
| 20260509012515 | 44 | 0.0 | 0.0 | 0.00 | 0.00 | 0.00 | 83 | 1007.6 | |
| 20260509012016 | 45 | 0.0 | 0.0 | 0.00 | 0.00 | 0.00 | 82 | 1007.6 | |
| 20260509011516 | 45 | 0.0 | 0.0 | 0.00 | 0.00 | 0.00 | 81 | 1007.5 | |
| 20260509011015 | 45 | 0.0 | 1.0 | 0.00 | 0.00 | 0.00 | 80 | 1007.4 | |
| 20260509010516 | 46 | 0.0 | 1.0 | 0.00 | 0.00 | 0.00 | 79 | 1007.4 | |
| 20260509010015 | 46 | 0.0 | 0.0 | 0.00 | 0.00 | 0.00 | 76 | 1007.2 | |
| 20260509005516 | 47 | 0.0 | 1.0 | 0.00 | 0.00 | 0.00 | 76 | 1007.2 | |
| 20260509005015 | 47 | 0.0 | 1.0 | 0.00 | 0.00 | 0.00 | 74 | 1007.1 | |
| 20260509004516 | 47 | 0.0 | 2.0 | 0.00 | 0.00 | 0.00 | 73 | 1007.1 | |
| 20260509004015 | 47 | 0.0 | 0.0 | 0.00 | 0.00 | 0.00 | 74 | 1007.0 | |
| 20260509003515 | 48 | 0.0 | 0.0 | 0.00 | 0.00 | 0.00 | 73 | 1006.8 | |
| 20260509003015 | 47 | 0.0 | 0.0 | 0.00 | 0.00 | 0.00 | 73 | 1006.7 | |
| 20260509002515 | 47 | 0.0 | 0.0 | 0.00 | 0.00 | 0.00 | 75 | 1006.6 | |
| 20260509002015 | 48 | 0.0 | 1.0 | 0.00 | 0.00 | 0.00 | 75 | 1006.5 | |
| 20260509001516 | 49 | 0.0 | 0.0 | 0.00 | 0.00 | 0.00 | 74 | 1006.3 | |
| 20260509001016 | 50 | 0.0 | 0.0 | 0.00 | 0.00 | 0.00 | 71 | 1006.2 | |
| 20260509000515 | 50 | 0.0 | 0.0 | 0.00 | 0.00 | 0.00 | 65 | 1006.0 | |
| 20260509000015 | 50 | 0.0 | 0.0 | 0.00 | 0.00 | 0.00 | 65 | 1005.9 | |
| 20260508235515 | 51 | 0.0 | 0.0 | 0.00 | 0.00 | 0.00 | 65 | 1005.8 | |
| 20260508235016 | 51 | 0.0 | 1.0 | 0.00 | 0.00 | 0.00 | 60 | 1005.7 | |
| 20260508234517 | 52 | 0.0 | 1.0 | 0.00 | 0.00 | 0.00 | 60 | 1005.6 | |
| 20260508234016 | 52 | 0.0 | 1.0 | 0.00 | 0.00 | 0.00 | 59 | 1005.5 | |
| 20260508233515 | 53 | 0.0 | 2.0 | 0.00 | 0.00 | 0.00 | 59 | 1005.3 | |
| 20260508233016 | 53 | 338 | 1.0 | 2.0 | 0.00 | 0.00 | 0.00 | 57 | 1005.3 |
| 20260508232516 | 53 | 315 | 1.0 | 3.0 | 0.00 | 0.00 | 0.00 | 56 | 1005.2 |
| 20260508232015 | 54 | 315 | 1.0 | 4.0 | 0.00 | 0.00 | 0.00 | 56 | 1005.0 |
| 20260508231516 | 54 | 315 | 2.0 | 5.0 | 0.00 | 0.00 | 0.00 | 53 | 1004.9 |
| 20260508231016 | 54 | 315 | 2.0 | 7.0 | 0.00 | 0.00 | 0.00 | 52 | 1004.8 |
| 20260508230515 | 55 | 315 | 2.0 | 5.0 | 0.00 | 0.00 | 0.00 | 51 | 1004.6 |
| 20260508230016 | 55 | 315 | 3.0 | 5.0 | 0.00 | 0.00 | 0.00 | 50 | 1004.5 |
| 20260508225515 | 56 | 315 | 3.0 | 7.0 | 0.00 | 0.00 | 0.00 | 50 | 1004.4 |
| 20260508225016 | 56 | 338 | 2.0 | 6.0 | 0.00 | 0.00 | 0.00 | 50 | 1004.3 |
| 20260508224515 | 56 | 338 | 2.0 | 5.0 | 0.00 | 0.00 | 0.00 | 49 | 1004.2 |
| 20260508224015 | 56 | 338 | 4.0 | 7.0 | 0.00 | 0.00 | 0.00 | 48 | 1004.1 |
| 20260508223515 | 57 | 338 | 4.0 | 9.0 | 0.00 | 0.00 | 0.00 | 47 | 1004.0 |
| 20260508223015 | 57 | 315 | 4.0 | 8.0 | 0.00 | 0.00 | 0.00 | 47 | 1003.9 |